Regional Weather Roundup
Issued by NWS Goodland, KS

Home | Current Version | Previous Version | Text Only | Print | Product List | Glossary Off
Versions: 1 2 3 4 5 6 7 8 9 10 11 12 13 14 15 16 17 18 19 20 21 22 23 24 25 26 27 28 29 30 31 32 33 34 35 36 37 38 39 40 41 42 43 44 45 46 47 48 49 50

000
ASUS43 KGLD 190708
RWRGLD

GOODLAND FORECAST AREA HOURLY WEATHER ROUNDUP
NATIONAL WEATHER SERVICE GOODLAND KS
100 AM MDT SAT AUG 19 2017

...OFFICIAL OBSERVATIONS...

CITY           SKY/WX    TMP DP  RH WIND       PRES   REMARKS
GOODLAND KS    CLEAR     62  56  80 S8        30.08F
HILL CITY KS   CLEAR     60  58  92 NW3       30.02S
IMPERIAL NEB   CLEAR     66  56  70 SW8       30.05S
MCCOOK NEB     CLEAR     66  58  75 SW9       30.02S
AKRON CO       CLEAR     66  51  58 S12       30.12F
BURLINGTON CO  CLEAR     62  56  80 S8        30.13S
LIMON CO       CLEAR     52  51  97 CALM      30.20S
$$

...UNOFFICIAL OBSERVATIONS...

CITY           SKY/WX    TMP DP  RH WIND       PRES   REMARKS
LENORA KS        N/A     68  32  26 CALM        N/A
NORTON KS      CLEAR     59  54  82 SW3       30.01
SHARON SPRINGS   N/A     62  56  81 SE6         N/A
TRENTON NEB      N/A     64  32  30 CALM        N/A
KIT CARSON CO    N/A     64  54  69 CALM        N/A
YUMA CO        FAIR      57  43  58 S9        30.09F
$$



USA.gov is the U.S. government's official web portal to all federal, state and local government web resources and services.